Time,TemperatureF,DewpointF,PressureIn,WindDirection,WindDirectionDegrees,WindSpeedMPH,WindSpeedGustMPH,Humidity,HourlyPrecipIn,Conditions,Clouds,dailyrainin,SoftwareType,DateUTC
2013-04-02 00:10:00,26.0,14.0,30.14,West,266,2.0,-999.0,62,-99.99,,,0.00,weatherlink.com 1.10,2013-04-02 04:10:00,
2013-04-02 00:25:00,25.7,15.0,30.15,WNW,290,2.0,-999.0,63,-99.99,,,0.00,weatherlink.com 1.10,2013-04-02 04:25:00,
2013-04-02 00:40:00,25.2,15.0,30.15,WNW,292,1.0,-999.0,65,-99.99,,,0.00,weatherlink.com 1.10,2013-04-02 04:40:00,
2013-04-02 00:55:00,24.8,15.0,30.15,West,278,0.0,-999.0,66,-99.99,,,0.00,weatherlink.com 1.10,2013-04-02 04:55:00,
2013-04-02 01:10:00,24.7,15.0,30.15,WNW,290,0.0,-999.0,67,-99.99,,,0.00,weatherlink.com 1.10,2013-04-02 05:10:00,
2013-04-02 01:25:00,24.4,15.0,30.15,West,280,0.0,-999.0,68,-99.99,,,0.00,weatherlink.com 1.10,2013-04-02 05:25:00,
2013-04-02 01:40:00,24.3,15.0,30.15,WNW,285,1.0,-999.0,68,-99.99,,,0.00,weatherlink.com 1.10,2013-04-02 05:40:00,
2013-04-02 01:55:00,23.6,15.0,30.15,West,262,0.0,-999.0,69,-99.99,,,0.00,weatherlink.com 1.10,2013-04-02 05:55:00,
2013-04-02 02:10:00,23.2,15.0,30.15,West,276,0.0,-999.0,70,-99.99,,,0.00,weatherlink.com 1.10,2013-04-02 06:10:00,
2013-04-02 02:25:00,23.0,15.0,30.16,WNW,287,0.0,-999.0,71,-99.99,,,0.00,weatherlink.com 1.10,2013-04-02 06:25:00,
2013-04-02 02:40:00,22.8,15.0,30.15,West,264,0.0,-999.0,72,-99.99,,,0.00,weatherlink.com 1.10,2013-04-02 06:40:00,
2013-04-02 02:55:00,22.9,15.0,30.15,NW,315,0.0,-999.0,73,-99.99,,,0.00,weatherlink.com 1.10,2013-04-02 06:55:00,
2013-04-02 03:10:00,23.4,16.0,30.15,NW,314,0.0,-999.0,72,-99.99,,,0.00,weatherlink.com 1.10,2013-04-02 07:10:00,
2013-04-02 03:25:00,23.4,16.0,30.15,WNW,283,0.0,-999.0,72,-99.99,,,0.00,weatherlink.com 1.10,2013-04-02 07:25:00,
2013-04-02 03:40:00,23.6,16.0,30.15,WSW,240,2.0,-999.0,73,-99.99,,,0.00,weatherlink.com 1.10,2013-04-02 07:40:00,
2013-04-02 03:55:00,23.5,16.0,30.15,West,279,2.0,-999.0,73,-99.99,,,0.00,weatherlink.com 1.10,2013-04-02 07:55:00,
2013-04-02 04:10:00,23.8,16.0,30.15,WNW,288,0.0,-999.0,72,-99.99,,,0.00,weatherlink.com 1.10,2013-04-02 08:10:00,
2013-04-02 04:25:00,23.8,16.0,30.16,WNW,299,0.0,-999.0,73,-99.99,,,0.00,weatherlink.com 1.10,2013-04-02 08:25:00,
2013-04-02 04:40:00,23.8,17.0,30.15,NW,308,0.0,-999.0,74,-99.99,,,0.00,weatherlink.com 1.10,2013-04-02 08:40:00,
2013-04-02 04:55:00,23.6,16.0,30.15,West,281,0.0,-999.0,74,-99.99,,,0.00,weatherlink.com 1.10,2013-04-02 08:55:00,
2013-04-02 05:10:00,23.4,17.0,30.16,WNW,283,0.0,-999.0,75,-99.99,,,0.00,weatherlink.com 1.10,2013-04-02 09:10:00,
2013-04-02 05:25:00,23.3,17.0,30.16,West,276,0.0,-999.0,75,-99.99,,,0.00,weatherlink.com 1.10,2013-04-02 09:25:00,
2013-04-02 05:40:00,23.9,18.0,30.16,WNW,285,0.0,-999.0,77,-99.99,,,0.00,weatherlink.com 1.10,2013-04-02 09:40:00,
2013-04-02 05:55:00,24.3,18.0,30.17,WNW,294,1.0,-999.0,76,-99.99,,,0.00,weatherlink.com 1.10,2013-04-02 09:55:00,
2013-04-02 06:10:00,24.2,18.0,30.17,WSW,257,4.0,-999.0,77,-99.99,,,0.00,weatherlink.com 1.10,2013-04-02 10:10:00,
2013-04-02 06:25:00,24.0,18.0,30.18,WNW,285,4.0,-999.0,78,-99.99,,,0.00,weatherlink.com 1.10,2013-04-02 10:25:00,
2013-04-02 06:40:00,23.4,18.0,30.18,WNW,295,5.0,-999.0,78,-99.99,,,0.00,weatherlink.com 1.10,2013-04-02 10:40:00,
2013-04-02 06:55:00,-999.0,-99.9,30.19,North,-999,-999.0,-999.0,-999,-99.99,,,0.00,weatherlink.com 1.10,2013-04-02 10:55:00,
2013-04-02 07:10:00,-999.0,-99.9,30.19,North,-999,-999.0,-999.0,-999,-99.99,,,0.00,weatherlink.com 1.10,2013-04-02 11:10:00,
2013-04-02 07:25:00,-999.0,-99.9,30.20,North,-999,-999.0,-999.0,-999,-99.99,,,0.00,weatherlink.com 1.10,2013-04-02 11:25:00,
2013-04-02 07:40:00,-999.0,-99.9,30.20,North,-999,-999.0,-999.0,-999,-99.99,,,0.00,weatherlink.com 1.10,2013-04-02 11:40:00,
2013-04-02 07:55:00,25.1,20.0,30.21,WNW,297,5.0,-999.0,80,-99.99,,,0.00,weatherlink.com 1.10,2013-04-02 11:55:00,
2013-04-02 08:10:00,26.1,21.0,30.22,West,277,5.0,-999.0,80,-99.99,,,0.00,weatherlink.com 1.10,2013-04-02 12:10:00,
2013-04-02 08:25:00,27.1,21.0,30.22,West,277,4.0,-999.0,79,-99.99,,,0.00,weatherlink.com 1.10,2013-04-02 12:25:00,
2013-04-02 08:40:00,28.4,22.0,30.23,WNW,286,3.0,-999.0,77,-99.99,,,0.00,weatherlink.com 1.10,2013-04-02 12:40:00,
2013-04-02 08:55:00,29.5,22.0,30.23,West,263,6.0,-999.0,73,-99.99,,,0.00,weatherlink.com 1.10,2013-04-02 12:55:00,
2013-04-02 09:10:00,30.2,21.0,30.23,West,273,5.0,-999.0,69,-99.99,,,0.00,weatherlink.com 1.10,2013-04-02 13:10:00,
2013-04-02 09:25:00,31.4,18.0,30.24,NW,311,8.0,-999.0,59,-99.99,,,0.00,weatherlink.com 1.10,2013-04-02 13:25:00,
2013-04-02 09:40:00,32.1,18.0,30.24,WNW,293,3.0,-999.0,56,-99.99,,,0.00,weatherlink.com 1.10,2013-04-02 13:40:00,
2013-04-02 09:55:00,32.5,17.0,30.24,West,271,4.0,-999.0,54,-99.99,,,0.00,weatherlink.com 1.10,2013-04-02 13:55:00,
2013-04-02 10:10:00,33.0,17.0,30.24,NW,304,12.0,-999.0,51,-99.99,,,0.00,weatherlink.com 1.10,2013-04-02 14:10:00,
2013-04-02 10:25:00,33.7,17.0,30.24,WNW,290,5.0,-999.0,50,-99.99,,,0.00,weatherlink.com 1.10,2013-04-02 14:25:00,
2013-04-02 10:40:00,34.7,17.0,30.24,West,267,6.0,-999.0,48,-99.99,,,0.00,weatherlink.com 1.10,2013-04-02 14:40:00,
2013-04-02 10:55:00,35.1,16.0,30.24,NW,306,10.0,-999.0,45,-99.99,,,0.00,weatherlink.com 1.10,2013-04-02 14:55:00,
2013-04-02 11:10:00,35.5,15.0,30.24,WNW,291,12.0,-999.0,43,-99.99,,,0.00,weatherlink.com 1.10,2013-04-02 15:10:00,
2013-04-02 11:25:00,37.0,15.0,30.24,WNW,299,10.0,-999.0,41,-99.99,,,0.00,weatherlink.com 1.10,2013-04-02 15:25:00,
2013-04-02 11:40:00,36.7,15.0,30.24,NW,305,10.0,-999.0,42,-99.99,,,0.00,weatherlink.com 1.10,2013-04-02 15:40:00,
2013-04-02 11:55:00,37.2,15.0,30.24,WNW,288,7.0,-999.0,41,-99.99,,,0.00,weatherlink.com 1.10,2013-04-02 15:55:00,
2013-04-02 12:10:00,38.3,16.0,30.24,NW,304,12.0,-999.0,40,-99.99,,,0.00,weatherlink.com 1.10,2013-04-02 16:10:00,
2013-04-02 12:25:00,38.2,16.0,30.23,WNW,292,7.0,-999.0,41,-99.99,,,0.00,weatherlink.com 1.10,2013-04-02 16:25:00,
2013-04-02 12:40:00,38.2,16.0,30.23,West,274,9.0,-999.0,40,-99.99,,,0.00,weatherlink.com 1.10,2013-04-02 16:40:00,
2013-04-02 12:55:00,37.7,15.0,30.22,WNW,290,9.0,-999.0,39,-99.99,,,0.00,weatherlink.com 1.10,2013-04-02 16:55:00,
2013-04-02 13:10:00,40.8,18.0,30.22,WNW,286,8.0,-999.0,40,-99.99,,,0.00,weatherlink.com 1.10,2013-04-02 17:10:00,
2013-04-02 13:25:00,40.2,18.0,30.21,WSW,243,7.0,-999.0,40,-99.99,,,0.00,weatherlink.com 1.10,2013-04-02 17:25:00,
2013-04-02 13:40:00,40.4,16.0,30.20,NW,312,4.0,-999.0,37,-99.99,,,0.00,weatherlink.com 1.10,2013-04-02 17:40:00,
2013-04-02 13:55:00,41.3,17.0,30.20,SW,233,6.0,-999.0,38,-99.99,,,0.00,weatherlink.com 1.10,2013-04-02 17:55:00,
2013-04-02 14:10:00,41.9,17.0,30.20,WNW,297,9.0,-999.0,36,-99.99,,,0.00,weatherlink.com 1.10,2013-04-02 18:10:00,
2013-04-02 14:25:00,41.3,17.0,30.20,WNW,298,9.0,-999.0,37,-99.99,,,0.00,weatherlink.com 1.10,2013-04-02 18:25:00,
2013-04-02 14:40:00,41.9,18.0,30.20,West,277,16.0,-999.0,38,-99.99,,,0.00,weatherlink.com 1.10,2013-04-02 18:40:00,
2013-04-02 15:10:00,41.4,16.0,30.18,West,271,3.0,-999.0,36,-99.99,,,0.00,weatherlink.com 1.10,2013-04-02 19:10:00,
2013-04-02 15:25:00,41.5,18.0,30.18,WSW,245,6.0,-999.0,39,-99.99,,,0.00,weatherlink.com 1.10,2013-04-02 19:25:00,
2013-04-02 15:40:00,41.1,16.0,30.18,West,276,6.0,-999.0,37,-99.99,,,0.00,weatherlink.com 1.10,2013-04-02 19:40:00,
2013-04-02 15:55:00,41.7,16.0,30.18,South,191,5.0,-999.0,36,-99.99,,,0.00,weatherlink.com 1.10,2013-04-02 19:55:00,
2013-04-02 16:10:00,42.5,17.0,30.17,WNW,287,11.0,-999.0,36,-99.99,,,0.00,weatherlink.com 1.10,2013-04-02 20:10:00,
2013-04-02 16:25:00,42.2,16.0,30.17,West,280,11.0,-999.0,35,-99.99,,,0.00,weatherlink.com 1.10,2013-04-02 20:25:00,
2013-04-02 16:55:00,42.0,16.0,30.17,WNW,291,9.0,-999.0,35,-99.99,,,0.00,weatherlink.com 1.10,2013-04-02 20:55:00,
2013-04-02 17:10:00,43.4,16.0,30.17,NW,316,9.0,-999.0,33,-99.99,,,0.00,weatherlink.com 1.10,2013-04-02 21:10:00,
2013-04-02 17:25:00,42.7,16.0,30.17,WNW,286,10.0,-999.0,34,-99.99,,,0.00,weatherlink.com 1.10,2013-04-02 21:25:00,
2013-04-02 17:40:00,42.4,14.0,30.17,WNW,288,7.0,-999.0,32,-99.99,,,0.00,weatherlink.com 1.10,2013-04-02 21:40:00,
2013-04-02 17:55:00,42.4,15.0,30.18,WNW,288,10.0,-999.0,33,-99.99,,,0.00,weatherlink.com 1.10,2013-04-02 21:55:00,
2013-04-02 18:10:00,42.5,15.0,30.18,NW,311,11.0,-999.0,33,-99.99,,,0.00,weatherlink.com 1.10,2013-04-02 22:10:00,
2013-04-02 18:40:00,41.1,14.0,30.19,West,277,8.0,-999.0,33,-99.99,,,0.00,weatherlink.com 1.10,2013-04-02 22:40:00,
2013-04-02 18:55:00,41.4,14.0,30.20,WNW,288,8.0,-999.0,33,-99.99,,,0.00,weatherlink.com 1.10,2013-04-02 22:55:00,
2013-04-02 19:10:00,40.6,15.0,30.20,NW,323,8.0,-999.0,36,-99.99,,,0.00,weatherlink.com 1.10,2013-04-02 23:10:00,
2013-04-02 19:25:00,40.5,15.0,30.21,WNW,296,9.0,-999.0,35,-99.99,,,0.00,weatherlink.com 1.10,2013-04-02 23:25:00,
2013-04-02 19:40:00,39.5,14.0,30.21,WNW,301,8.0,-999.0,36,-99.99,,,0.00,weatherlink.com 1.10,2013-04-02 23:40:00,
2013-04-02 19:55:00,38.4,15.0,30.21,NW,304,8.0,-999.0,38,-99.99,,,0.00,weatherlink.com 1.10,2013-04-02 23:55:00,
2013-04-02 20:10:00,37.6,15.0,30.22,WNW,293,5.0,-999.0,39,-99.99,,,0.00,weatherlink.com 1.10,2013-04-03 00:10:00,
2013-04-02 20:25:00,37.0,15.0,30.23,West,281,7.0,-999.0,40,-99.99,,,0.00,weatherlink.com 1.10,2013-04-03 00:25:00,
2013-04-02 20:40:00,36.5,15.0,30.23,NW,304,6.0,-999.0,42,-99.99,,,0.00,weatherlink.com 1.10,2013-04-03 00:40:00,
2013-04-02 20:55:00,35.9,15.0,30.24,WNW,283,8.0,-999.0,43,-99.99,,,0.00,weatherlink.com 1.10,2013-04-03 00:55:00,
2013-04-02 21:10:00,35.4,15.0,30.25,NW,304,6.0,-999.0,44,-99.99,,,0.00,weatherlink.com 1.10,2013-04-03 01:10:00,
2013-04-02 21:25:00,35.1,16.0,30.25,NW,326,6.0,-999.0,46,-99.99,,,0.00,weatherlink.com 1.10,2013-04-03 01:25:00,
2013-04-02 21:40:00,34.7,16.0,30.26,WNW,298,8.0,-999.0,47,-99.99,,,0.00,weatherlink.com 1.10,2013-04-03 01:40:00,
2013-04-02 21:55:00,34.2,16.0,30.27,WNW,292,5.0,-999.0,48,-99.99,,,0.00,weatherlink.com 1.10,2013-04-03 01:55:00,
2013-04-02 22:10:00,33.8,16.0,30.27,West,274,5.0,-999.0,49,-99.99,,,0.00,weatherlink.com 1.10,2013-04-03 02:10:00,
2013-04-02 22:25:00,33.5,17.0,30.28,WNW,292,6.0,-999.0,50,-99.99,,,0.00,weatherlink.com 1.10,2013-04-03 02:25:00,
2013-04-02 22:40:00,32.9,16.0,30.28,NW,312,5.0,-999.0,51,-99.99,,,0.00,weatherlink.com 1.10,2013-04-03 02:40:00,
2013-04-02 22:55:00,32.5,16.0,30.28,West,278,6.0,-999.0,52,-99.99,,,0.00,weatherlink.com 1.10,2013-04-03 02:55:00,
2013-04-02 23:10:00,32.0,16.0,30.28,West,281,6.0,-999.0,53,-99.99,,,0.00,weatherlink.com 1.10,2013-04-03 03:10:00,
2013-04-02 23:25:00,31.6,17.0,30.29,WNW,297,6.0,-999.0,54,-99.99,,,0.00,weatherlink.com 1.10,2013-04-03 03:25:00,
2013-04-02 23:40:00,31.2,17.0,30.29,WNW,298,3.0,-999.0,56,-99.99,,,0.00,weatherlink.com 1.10,2013-04-03 03:40:00,
2013-04-02 23:55:00,30.6,17.0,30.29,NW,315,3.0,-999.0,57,-99.99,,,0.00,weatherlink.com 1.10,2013-04-03 03:55:00,